Location: Warszawa
(52.2500°N, 21.0000°E)
Time: 10:54:38
(UTC+01:00)

Explorer 7 - Visible Passes

Search period start: 28 January 2023 00:00
Search period end: 07 February 2023 00:00
Orbit: 480 x 660 km, 50.3° (Epoch: 27 January)

Date Brightness Start Highest point End Pass type
(mag) Time Alt. Az. Time Alt. Az. Time Alt. Az.
28 Jan 7.4 17:16:34 10° W 17:21:09 66° S 17:25:52 10° ESE visible
28 Jan 8.3 18:56:52 10° W 19:01:09 35° SSW 19:02:01 32° S visible
29 Jan 7.6 17:17:34 10° W 17:22:07 60° SSW 17:26:49 10° ESE visible
29 Jan 8.8 18:58:00 10° W 19:02:00 28° SSW 19:03:24 24° S visible
30 Jan 7.8 17:18:34 10° W 17:23:03 52° SSW 17:27:41 10° ESE visible
30 Jan 9.2 18:59:13 10° W 19:02:48 22° SW 19:04:54 16° S visible
31 Jan 8.2 17:19:34 10° W 17:23:57 44° SSW 17:28:28 10° SE visible
31 Jan 9.6 19:00:37 10° W 19:03:32 16° SW 19:06:30 10° S visible
01 Feb 8.6 17:20:35 10° W 17:24:48 36° SSW 17:29:09 10° SE visible
01 Feb 9.9 19:02:30 10° WSW 19:04:14 12° SW 19:05:59 10° SSW visible
02 Feb 9.0 17:21:39 10° W 17:25:37 29° SSW 17:29:42 10° SSE visible
03 Feb 9.5 17:22:47 10° W 17:26:23 23° SW 17:30:04 10° SSE visible
04 Feb 9.9 17:24:04 10° W 17:27:05 17° SW 17:30:10 10° S visible
05 Feb 10.2 17:25:44 10° WSW 17:27:45 13° SW 17:29:47 10° SSW visible
